Location: Tierz
(42.1336°N, 0.3549°W)
Time: 23:16:00
(UTC+00:00)

YAOGAN 1 - Visible Passes

Search period start: 25 February 2021 00:00
Search period end: 07 March 2021 00:00
Orbit: 618 x 620 km, 97.9° (Epoch: 25 February)

Date Brightness Start Highest point End Pass type
(mag) Time Alt. Az. Time Alt. Az. Time Alt. Az.
25 Feb 3.5 19:08:25 10° S 19:12:36 50° W 19:16:50 10° NNW visible
26 Feb 4.4 19:25:52 10° SSW 19:29:45 33° W 19:33:40 10° NNW visible
27 Feb 5.1 19:43:35 10° SW 19:46:56 22° W 19:50:18 10° NW visible
28 Feb 2.7 18:23:36 10° SSE 18:27:47 51° ENE 18:31:59 10° N visible
28 Feb 5.7 20:01:47 10° SW 20:04:10 14° W 20:06:33 10° WNW visible
01 Mar 2.5 18:40:30 10° SSE 18:44:49 79° ENE 18:49:09 10° N visible
02 Mar 2.9 18:57:36 10° S 19:01:53 67° WSW 19:06:12 10° NNW visible
03 Mar 3.8 19:14:54 10° S 19:19:00 43° W 19:23:08 10° NNW visible
04 Mar 4.7 19:32:26 10° SSW 19:36:09 28° W 19:39:54 10° NW visible
05 Mar 5.3 19:50:18 10° SW 19:53:21 19° W 19:56:26 10° NW visible
06 Mar 2.6 18:29:53 10° SSE 18:34:07 60° ENE 18:38:24 10° N visible
06 Mar 5.8 20:08:48 10° WSW 20:10:36 12° W 20:12:23 10° WNW visible
